Location: Lynch Observatory
(39.9540°N, 75.1861°W)
Time: 20:10:38
(UTC-04:00)

DOVE 4 - Pass Details

Date: 27 April 2024
Orbit: 582 x 778 km, 97.7° (Epoch: 28 May)

Event Time Altitude Azimuth Distance (km) Brightness Sun altitude
Rises 22:41:45 0° 11° (NNE) 2,939 ? -27.2°
Reaches altitude 10° 22:43:54 10° 11° (NNE) 2,054 ? -27.4°
Enters shadow 22:47:20 53° 8° (N) 819 ? -27.8°
